Погода в Кислокане

Россия / Красноярский край     63°35′21″N   103°57′16″E
темп.,
°C
ветер,
м/с
пор.,
м/с
влажн.,
%
обл.,
%
осадки,
мм/ч
давл.,
гПа
погр.,
м
30 июня, чт
чт3001:00+11ююз228449 0.0 100529
04:00+12ююз238393 0.0 100566
07:00+16ююз246957 0.0 1005418
10:00+19юз475817 0.3 10041426
13:00+21зюз484848 0.4 10042139
16:00+18юз246599 0.0 1004232
19:00+20ссз126433 0.0 1005320
22:00+14юв117913 0.0 100510
1 июля, пт
пт101:00+13юв228562 0.0 100518
04:00+14юв2278100 0.0 100541
07:00+18вюв3564100 0.0 1004318
10:00+22юв5754100 0.0 1003802
13:00+26ююв5839100 0.0 10012166
16:00+25зюз5855100 0.1 9991023
19:00+17ссз119698 3.4 100143
22:00+16з1197100 0.6 100116
2 июля, сб
сб201:00+15зюз1198100 2.0 100117
04:00+15зсз1199100 5.9 100026
07:00+15зсз0096100 7.1 999133
10:00+15зсз1196100 0.9 999137
13:00+18юз1279100 1.4 999612
16:00+22зюз2461100 0.3 9981178
19:00+20зюз2671100 0.6 999264
22:00+16зюз2280100 0.0 99916
3 июля, вс
вс301:00+14юз2278100 0.0 100012
04:00+14зюз117955 0.0 100011
07:00+19ю126098 0.0 999326
10:00+21юз4556100 0.3 10001103
13:00+22зюз5547100 0.4 9992178
16:00+19зюз4757100 0.0 1001987
19:00+17зюз586050 0.0 1002878
22:00+12юз28762 0.0 1003192
4 июля, пн
пн401:00+10юз22863 0.0 100334
04:00+10юз27875 0.0 1002238
07:00+15зюз466814 0.0 1002910
10:00+18з575223 0.0 10021593
13:00+20зсз464487 0.0 10022119
16:00+19з2455100 0.0 10021049
19:00+16зюз137179 0.0 100298
22:00+13зюз1179100 0.0 100210